Time,TemperatureF,DewpointF,PressureIn,WindDirection,WindDirectionDegrees,WindSpeedMPH,WindSpeedGustMPH,Humidity,HourlyPrecipIn,Conditions,Clouds,dailyrainin,SoftwareType,DateUTC
2013-05-18 11:00:00,59.4,47.6,29.77,South,180,2.7,2.7,65,0.00,,,0.00,WUHU216HW,2013-05-18 18:00:00,
2013-05-18 11:05:00,59.4,47.6,29.77,South,180,2.7,2.7,65,0.00,,,0.00,WUHU216HW,2013-05-18 18:05:00,
2013-05-18 12:00:00,60.1,47.9,29.78,SSE,158,4.3,4.3,64,0.00,,,0.00,WUHU216HW,2013-05-18 19:00:00,
2013-05-18 12:05:00,60.1,47.9,29.78,SSE,158,4.3,4.3,64,0.00,,,0.00,WUHU216HW,2013-05-18 19:05:00,
2013-05-18 15:00:00,63.5,47.4,29.80,SSE,158,0.9,0.9,56,0.00,,,0.00,WUHU216HW,2013-05-18 22:00:00,
2013-05-18 15:05:00,63.5,47.4,29.80,SSE,158,0.9,0.9,56,0.00,,,0.00,WUHU216HW,2013-05-18 22:05:00,
2013-05-18 16:00:00,67.3,48.2,29.81,SSW,203,3.4,3.4,50,0.00,,,0.00,WUHU216HW,2013-05-18 23:00:00,
2013-05-18 16:05:00,67.3,48.2,29.81,SSW,203,3.4,3.4,50,0.00,,,0.00,WUHU216HW,2013-05-18 23:05:00,
2013-05-18 17:00:00,63.7,46.6,29.82,NW,315,0.0,0.0,54,0.00,,,0.00,WUHU216HW,2013-05-19 00:00:00,
2013-05-18 17:05:00,63.7,46.6,29.82,NW,315,0.0,0.0,54,0.00,,,0.00,WUHU216HW,2013-05-19 00:05:00,
2013-05-18 18:00:00,62.8,46.4,29.83,NE,45,0.7,0.7,55,0.00,,,0.00,WUHU216HW,2013-05-19 01:00:00,
2013-05-18 18:05:00,62.8,46.4,29.83,NE,45,0.7,0.7,55,0.00,,,0.00,WUHU216HW,2013-05-19 01:05:00,
2013-05-18 19:00:00,62.8,47.4,29.83,WNW,293,0.2,0.2,57,0.00,,,0.00,WUHU216HW,2013-05-19 02:00:00,
2013-05-18 19:05:00,62.8,47.4,29.83,WNW,293,0.2,0.2,57,0.00,,,0.00,WUHU216HW,2013-05-19 02:05:00,
2013-05-18 20:00:00,60.8,47.4,29.84,NNW,338,0.0,0.0,61,0.00,,,0.00,WUHU216HW,2013-05-19 03:00:00,
2013-05-18 20:05:00,60.8,47.4,29.84,NNW,338,0.0,0.0,61,0.00,,,0.00,WUHU216HW,2013-05-19 03:05:00,
2013-05-18 21:00:00,59.6,46.5,29.86,West,270,0.0,0.0,62,0.00,,,0.00,WUHU216HW,2013-05-19 04:00:00,
2013-05-18 21:01:00,59.6,46.5,29.86,West,270,0.0,0.0,62,0.00,,,0.00,WUHU216HW,2013-05-19 04:01:00,
2013-05-18 21:06:00,59.6,46.5,29.86,West,270,0.0,0.0,62,0.00,,,0.00,WUHU216HW,2013-05-19 04:06:00,
2013-05-18 22:00:00,58.5,45.6,29.88,NNW,338,0.0,0.0,62,0.00,,,0.00,WUHU216HW,2013-05-19 05:00:00,
2013-05-18 22:05:00,58.5,45.6,29.88,NNW,338,0.0,0.0,62,0.00,,,0.00,WUHU216HW,2013-05-19 05:05:00,